Showing default

IRIDIUM 141, 43077

Orbit data source: Space-Track

IRIDIUM 141, 43077 is a payload satellite owned by Iridium (US) in LEO that was launched on Sat, 23 Dec 2017 UTC via an FALCON 9 launch vehicle from the Air Force Western Test Range (AFWTR). Payloads include a variety of satellites, spacecraft, and rockets equipped with specific instruments for various scientific and technological missions. These include communications satellites like Starlink; space stations such as the ISS; scientific satellites like the Hubble; Earth observation satellites from companies like Planet Labs, Umbra, and HawkEye 360; GPS; miniature CubeSats for education and research; and military/defense satellites.

Loading next visibility...
IRIDIUM 141 details
Identifier
43077, 2017-083H
Orbit
LEO
Last TLE update11 hours ago
Origin
Flag of USIridium (US)
ManufacturerOATK SSG Gilbert
MissionOperational Commercial Communications
Bus & MotorELITEBUS, Unknown motor
Mass860 kg wet, 700 kg dry
Launch date (UTC)
2017-12-23 (7 years ago)
Launch vehicle
FALCON 9
Launch site
Air Force Western Test Range (AFWTR)
Object type
Payload
Rocket body
Debris
Shape & HBRTrap Box + 2 Pan, 9.4 m
Radar Cross Section14.423 m², Large (>1 m²)

Expand to show TLE details & history

TLE from 11 hours ago
0 IRIDIUM 141
1 43077U 17083H   24361.07772059  .00000073  00000-0  18988-4 0  9991
2 43077  86.3986 186.8870 0001942  80.5384 279.6032 14.34217864367044
Epoch: 2024-12-26T01:51Z
Definitive object data (Epoch: 2024-12-26T01:51:55.058Z)
Latitude0.00002°
Longitude63.8453°
Altitude780.486 km
Speed7.464 km/s
True Right ascension12h 27m 32s
True Declination0° 00' 00"
Sunlit
Object was in daylight at TLE epoch
Visualization TLE readout
Latitude-69.44362°
Longitude54.03671°
Altitude804.947 km
Speed7.449 km/s
Apparent Right ascension01h 27m 17s
Apparent Declination-77° 00' 19"
Sunlit
Object is in daylight
Visualization observer readout
Local Sidereal Time12:37:22
Azimuth184.58° SSW
Elevation-52.526°
Doppler factor1
Orbital elements
Apogee altitude776.02 km
Perigee altitude773.242 km
Semi-major axis7,152.768 km
Eccentricity0.0001942
Inclination86.3986°
RAAN186.887°
Arg. of periapsis80.5384°
True anomaly279.58126°
Mean anomaly279.6032°
Eccentric anomaly279.59223°
Mean motion3.58783 °/min
BSTAR0.000018988
Orbital period100.34 mins
Loading maneuver chart data...
Loading historical data...
Loading historical data...
Loading historical data...
Loading historical data...
Loading historical data...
Loading historical data...
Loading historical data...

IRIDIUM 141 Visibility forecast

Observer location: undefined°, undefined

Span
Click to sort rows by Start time (UTC) header in descending order
Start Az.
Max El. time (UTC)
Max El. Az.
Max El.
End time (UTC)
End Az.
9 mins2024-12-26 13:41:43.657Z203.683° SW2024-12-26 13:46:43.657Z287.328° WNW35.832°2024-12-26 13:50:43.657Z347.518° N
8 mins2024-12-27 00:13:43.657Z21.834° NNE2024-12-27 00:16:43.657Z78.4° E34.044°2024-12-27 00:21:43.657Z153.938° SSE
6 mins2024-12-27 01:54:43.657Z314.385° NW2024-12-27 01:57:43.657Z271.381° WNW19.12°2024-12-27 02:00:43.657Z234.676° WSW
7 mins2024-12-27 13:08:43.657Z182.179° SSW2024-12-27 13:12:43.657Z211.506° SW44.907°2024-12-27 13:15:43.657Z0.951° NNE
|